Location: Praha
(50.0830°N, 14.4670°E)
Time: 15:13:58
(UTC+02:00)

ISS - Pass Details

Date: 09 October 2019
Orbit: 411 x 421 km, 51.6° (Epoch: 18 October)

Event Time Altitude Azimuth Distance (km) Brightness Sun altitude
Rises 18:55:08 0° 286° (WNW) 2,349 1.7 -5.8°
Reaches altitude 10° 18:57:25 10° 273° (W) 1,482 0.9 -6.1°
Maximum altitude 19:00:15 26° 215° (SW) 851 -1.7 -6.6°
Drops below altitude 10° 19:03:04 10° 156° (SSE) 1,474 -1.2 -7.0°
Sets 19:05:20 0° 144° (SE) 2,332 -0.3 -7.4°
